THORAD DELTA 1 DEB, 8400

Orbit data source: Space-Track

THORAD DELTA 1 DEB, 8400 is space debris in SSO originally from a launch on Fri, 15 Nov 1974 UTC launched from the Air Force Western Test Range (AFWTR). Debris objects in space refer to the collection of defunct objects orbiting the Earth. Examples of debris include non-operational satellites, rocket bodies, and fragments generated from explosions, collisions, or faulty payload assembly.

Loading next visibility...
Identifier
8400, 1974-089CC
Orbit
SSO
Country
Flag of USUS
Related business
Manufacturer
Unknown
Mission
Spacecraft
Bus & Motor
Unknown
Mass
Unknown
Launch date (UTC)
1974-11-15 (52 years ago)
Launch vehicle
Unknown
Launch site
Air Force Western Test Range (AFWTR)
Object type
Payload
Rocket body
Debris
Shape & HBR
Unknown shape, 0.1 m
Radar Cross Section
Medium (>0.1 m² and <1 m²)

Expand to show TLE details & history
Last TLE update: 15 hours ago

TLE from 15 hours ago
0 THORAD DELTA 1 DEB
1 08400U 74089CC  26169.87495178 -.00000006  00000-0  26792-3 0  9999
2 08400 101.7905 133.6622 0049439 166.6044 219.1827 12.44955074345290
Epoch: 2026-06-18T20:59Z
TLE epoch observation values (Epoch: 2026-06-18T20:59:55.833Z)
Latitude
24.88516°
Longitude
-93.96176°
Altitude
1,518.589 km
Speed
7.094 km/s
True Right ascension
08h 32m 31s
True Declination
24° 46' 00"
Sunlit
Object was in daylight at epoch
Visualization orbit readout
Latitude
Unknown
Longitude
Unknown
Altitude
Unknown
Speed
Unknown
Apparent Right ascension
Unknown
Apparent Declination
Unknown
Sunlit
N/A
Visualization observer readout
Local Sidereal Time
22:58:25
Azimuth
Unknown
Elevation
Unknown
Doppler factor
Unknown
Orbital elements
Apogee altitude
1,522.089 km
Perigee altitude
1,444.358 km
Semi-major axis
7,861.361 km
Eccentricity
0.00494
Inclination
101.7905°
RAAN
133.6622°
Arg. of periapsis
166.6044°
True anomaly
218.82648°
Mean anomaly
219.1827°
Eccentric anomaly
219.00442°
Mean motion
3.11384 °/min
Orbital period
115.61 mins
BSTAR
0.00026792
Loading maneuver chart data...
Computing Atmospheric mass density...
Loading historical data...
Loading historical data...
Loading historical data...
Loading historical data...
Loading historical data...
Loading historical data...
Loading historical data...

Documentation

Showing up to 5 results
|